Content
SEND FEEDBACK

Daily
Averages
Monthly
Summary
United States of America

ROCK HILL, NEW YORK


Home > North America > United States > New York
Elevation: 1260 feet     Latitude: 41 35N     Longitude: 074 37W

WEATHER
 
SELECT A DAY
Number of Records: 450,356;   Date Range: 1/1/95 - 10/18/14
 
SHARE

PRINT THIS DATA

[ ← Previous Day ]
WEATHER ALMANAC - OCTOBER 20, 2013
[ Next Day → ]
[ °C ]   °F
Weather ElementAverageHighLow
Temperature46.2 °F53.6 °F (1:35 pm)37.4 °F (10:55 pm)
Dewpoint33.3 °F42.8 °F (12:35 am)30.2 °F (1:15 pm)
Humidity62.1 %87 % (12:35 am)41 % (3:55 pm)
Barometer29.93 in30.06 in (11:55 pm)29.76 in (12:35 am)
Wind Speed7.6 mph19.6 mph (2:55 am)
Wind Gust25.3 mph (2:55 am)
Weather ElementAverage
Visibility10 mi
Wind DirectionWSW (236.9 °)

Weather ElementTotal
Precipitation0.01 in
Heating Degree Days19.5 (Base 65)
Averaged from 71 records on October 20, 2013
WEATHER CONDITIONS BREAKOUT
WIND DIRECTION BREAKOUT
WEATHER BY HOUR - OCTOBER 20, 2013
[ °C ]   °F
Local TimeTemperatureDewpointHumidityBarometerVisibilityWind DirectionWind SpeedGust SpeedPrecipitationEventsConditions
12:35 AM46.4 °F42.8 °F87 %29.76 in7.0 miWSW (240°)5.8 mphMostly Cloudy
12:55 AM46.4 °F42.8 °F87 %29.76 in10.0 miWest (270°)5.8 mphScattered Clouds
1:15 AM48.2 °F42.8 °F82 %29.76 in10.0 miWest (260°)5.8 mphMostly Cloudy
1:35 AM48.2 °F42.8 °F82 %29.76 in10.0 miWest (270°)6.9 mphOvercast
1:55 AM48.2 °F41.0 °F76 %29.77 in10.0 miWest (270°)9.2 mph0.01 inMostly Cloudy
2:15 AM46.4 °F39.2 °F76 %29.77 in10.0 miWest (280°)10.4 mphScattered Clouds
2:35 AM48.2 °F39.2 °F71 %29.78 in10.0 miWNW (290°)13.8 mph23.0 mphMostly Cloudy
2:55 AM46.4 °F37.4 °F71 %29.79 in10.0 miWNW (290°)19.6 mph25.3 mphScattered Clouds
3:15 AM46.4 °F35.6 °F66 %29.80 in10.0 miWNW (290°)11.5 mph20.7 mphClear
3:35 AM44.6 °F35.6 °F71 %29.80 in10.0 miWest (280°)12.7 mphClear
3:55 AM44.6 °F33.8 °F66 %29.80 in10.0 miWNW (290°)15.0 mph19.6 mphClear
4:15 AM44.6 °F33.8 °F66 %29.81 in10.0 miWNW (290°)15.0 mph19.6 mphClear
4:35 AM42.8 °F33.8 °F70 %29.82 in10.0 miWest (280°)13.8 mph18.4 mphClear
4:55 AM42.8 °F33.8 °F70 %29.83 in10.0 miWest (280°)9.2 mphClear
5:15 AM42.8 °F33.8 °F70 %29.84 in10.0 miWest (280°)9.2 mphClear
5:35 AM42.8 °F32.0 °F66 %29.84 in10.0 miWest (280°)6.9 mphClear
5:55 AM41.0 °F32.0 °F70 %29.85 in10.0 miWest (270°)5.8 mphClear
6:15 AM41.0 °F32.0 °F70 %29.86 in10.0 miWest (270°)6.9 mphClear
6:35 AM39.2 °F32.0 °F75 %29.87 in10.0 miWest (260°)5.8 mphClear
6:55 AM39.2 °F32.0 °F75 %29.87 in10.0 miWest (270°)6.9 mphClear
7:15 AM39.2 °F32.0 °F75 %29.88 in10.0 miWest (270°)6.9 mphClear
7:35 AM39.2 °F32.0 °F75 %29.89 in10.0 miWest (260°)5.8 mphClear
7:55 AM39.2 °F32.0 °F75 %29.90 in10.0 miWest (270°)5.8 mphClear
8:15 AM39.2 °F33.8 °F81 %29.91 in10.0 miWest (270°)4.6 mphClear
8:35 AM42.8 °F33.8 °F70 %29.92 in10.0 miWSW (250°)3.5 mphClear
8:55 AM42.8 °F33.8 °F70 %29.93 in10.0 miWest (260°)4.6 mphClear
9:15 AM44.6 °F33.8 °F66 %29.93 in10.0 miWest (280°)11.5 mph16.1 mphClear
9:35 AM44.6 °F33.8 °F66 %29.93 in10.0 miWNW (290°)12.7 mphClear
9:55 AM46.4 °F33.8 °F62 %29.94 in10.0 miWest (280°)8.1 mphPartly Cloudy
10:15 AM46.4 °F33.8 °F62 %29.94 in10.0 miWNW (290°)11.5 mph17.3 mphScattered Clouds
10:35 AM46.4 °F33.8 °F62 %29.94 in10.0 miWest (270°)12.7 mph20.7 mphMostly Cloudy
10:55 AM48.2 °F33.8 °F58 %29.95 in10.0 miWNW (290°)12.7 mph17.3 mphMostly Cloudy
11:15 AM50.0 °F33.8 °F54 %29.95 in10.0 miWest (270°)11.5 mph20.7 mphMostly Cloudy
11:35 AM50.0 °F33.8 °F54 %29.95 in10.0 miWest (270°)11.5 mph17.3 mphMostly Cloudy
11:55 AM50.0 °F33.8 °F54 %29.96 in10.0 miWNW (290°)12.7 mph18.4 mphScattered Clouds
12:15 PM50.0 °F32.0 °F50 %29.96 in10.0 miWNW (290°)11.5 mph20.7 mphPartly Cloudy
12:35 PM51.8 °F32.0 °F47 %29.96 in10.0 miWest (280°)10.4 mphScattered Clouds
12:55 PM51.8 °F33.8 °F50 %29.96 in10.0 miWNW (290°)9.2 mphMostly Cloudy
1:15 PM51.8 °F30.2 °F44 %29.96 in10.0 miWNW (290°)9.2 mphMostly Cloudy
1:35 PM53.6 °F33.8 °F47 %29.95 in10.0 miNW (320°)11.5 mphMostly Cloudy
1:55 PM53.6 °F33.8 °F47 %29.95 in10.0 miWNW (300°)10.4 mph16.1 mphScattered Clouds
2:15 PM53.6 °F33.8 °F47 %29.95 in10.0 miWNW (300°)8.1 mphMostly Cloudy
2:35 PM53.6 °F33.8 °F47 %29.95 in10.0 miWest (270°)10.4 mph16.1 mphMostly Cloudy
2:55 PM53.6 °F33.8 °F47 %29.95 in10.0 miWest (270°)11.5 mph17.3 mphScattered Clouds
3:15 PM51.8 °F30.2 °F44 %29.95 in10.0 miWest (280°)10.4 mphScattered Clouds
3:35 PM53.6 °F32.0 °F44 %29.95 in10.0 miWest (280°)8.1 mphMostly Cloudy
3:55 PM53.6 °F30.2 °F41 %29.96 in10.0 miWNW (300°)9.2 mphScattered Clouds
4:15 PM53.6 °F33.8 °F47 %29.97 in10.0 miNW (310°)9.2 mphMostly Cloudy
4:35 PM53.6 °F32.0 °F44 %29.97 in10.0 miWNW (290°)10.4 mph18.4 mphMostly Cloudy
4:55 PM53.6 °F32.0 °F44 %29.97 in10.0 miWest (270°)11.5 mph16.1 mphPartly Cloudy
5:15 PM51.8 °F30.2 °F44 %29.98 in10.0 miWest (280°)8.1 mph16.1 mphClear
5:35 PM51.8 °F30.2 °F44 %29.98 in10.0 miWNW (290°)6.9 mphMostly Cloudy
5:55 PM51.8 °F32.0 °F47 %29.99 in10.0 miWNW (290°)4.6 mphOvercast
6:15 PM50.0 °F30.2 °F47 %29.99 in10.0 miWest (280°)4.6 mphScattered Clouds
6:35 PM48.2 °F30.2 °F50 %30.00 in10.0 miWest (280°)3.5 mphClear
6:55 PM46.4 °F30.2 °F53 %30.00 in10.0 miWSW (240°)4.6 mphClear
7:15 PM46.4 °F30.2 °F53 %30.01 in10.0 miWest (260°)4.6 mphPartly Cloudy
7:35 PM46.4 °F32.0 °F57 %30.01 in10.0 miSSW (210°)4.6 mphMostly Cloudy
7:55 PM46.4 °F32.0 °F57 %30.01 in10.0 miSW (230°)3.5 mphScattered Clouds
8:15 PM44.6 °F32.0 °F61 %30.02 in10.0 miSW (230°)3.5 mphClear
8:35 PM44.6 °F33.8 °F66 %30.02 in10.0 miSW (230°)3.5 mphClear
8:55 PM42.8 °F30.2 °F61 %30.02 in10.0 miCalmPartly Cloudy
9:15 PM42.8 °F30.2 °F61 %30.03 in10.0 miCalmClear
9:35 PM42.8 °F30.2 °F61 %30.04 in10.0 miCalmClear
9:55 PM41.0 °F30.2 °F65 %30.04 in10.0 miCalmScattered Clouds
10:15 PM41.0 °F32.0 °F70 %30.04 in10.0 miCalmOvercast
10:35 PM39.2 °F30.2 °F70 %30.05 in10.0 miNE (40°)3.5 mphScattered Clouds
10:55 PM37.4 °F30.2 °F75 %30.05 in10.0 miCalmClear
11:15 PM39.2 °F32.0 °F75 %30.05 in10.0 miCalmClear
11:35 PM37.4 °F30.2 °F75 %30.05 in10.0 miCalmClear
11:55 PM37.4 °F30.2 °F75 %30.06 in10.0 miCalmClear
Hourly data recorded from KMSV, located miles away from Rock Hill, New York







STORIES FROM OUR PARTNERS